Location: Newark
(47.3150°N, 5.1150°E)
Time: 22:28:32
(UTC+00:00)

ISS - Pass Details

Date: 29 October 2019
Orbit: 412 x 421 km, 51.6° (Epoch: 19 November)

Event Time Altitude Azimuth Distance (km) Brightness Sun altitude
Exits shadow 05:29:24 11° 264° (W) 1,433 -1.7 -8.8°
Maximum altitude 05:32:33 56° 343° (NNW) 510 -3.5 -8.2°
Drops below altitude 10° 05:35:53 10° 63° (ENE) 1,508 -0.1 -7.7°
Sets 05:38:01 0° 67° (ENE) 2,373 1.1 -7.3°
